Laconia, New Hampshire, United States (03246)
Lat: 43.53N, Lon: 71.47W
Wx Zone: NHZ009
Local Info
Past Weather Observations for Sunday, July 26, 2015

NOTE: This archive is for the closest National Weather Service station to Laconia. Information may differ from the station used for current weather conditions.

Click here for Long-term Archive

Time Weather Temperature Dewpoint Humidity Pressure Winds Precip Visibility
23:55
Overcast
68°F / 20°C 64°F / 18°C 88% 30.01 in
(1016 mb)
NNE 4.6 mph
(NNE 7 kph)
- 9SM
23:35
Overcast
68°F / 20°C 64°F / 18°C 88% 30.01 in
(1016 mb)
ENE 4.6 mph
(ENE 7 kph)
- 8SM
23:15
Overcast
68°F / 20°C 64°F / 18°C 88% 30.01 in
(1016 mb)
ENE 4.6 mph
(ENE 7 kph)
- 9SM
22:55
Overcast
68°F / 20°C 64°F / 18°C 88% 30.01 in
(1016 mb)
ENE 5.8 mph
(ENE 9 kph)
- 10SM
22:35
Overcast
68°F / 20°C 64°F / 18°C 88% 30.01 in
(1016 mb)
NE 3.5 mph
(NE 6 kph)
- 10SM
22:15
Overcast
68°F / 20°C 64°F / 18°C 88% 30.01 in
(1016 mb)
NE 4.6 mph
(NE 7 kph)
- 10SM
21:55
Overcast
68°F / 20°C 64°F / 18°C 88% 30.01 in
(1016 mb)
NE 4.6 mph
(NE 7 kph)
- 10SM
21:35
Overcast
68°F / 20°C 64°F / 18°C 88% 30.01 in
(1016 mb)
NNE 5.8 mph
(NNE 9 kph)
- 10SM
21:15
Overcast
68°F / 20°C 64°F / 18°C 88% 30.01 in
(1016 mb)
NE 4.6 mph
(NE 7 kph)
- 10SM
20:55
Overcast
68°F / 20°C 64°F / 18°C 88% 30.01 in
(1016 mb)
NE 4.6 mph
(NE 7 kph)
- 10SM
20:35
Overcast
68°F / 20°C 64°F / 18°C 88% 30.01 in
(1016 mb)
NE 4.6 mph
(NE 7 kph)
- 10SM
20:15
Overcast
68°F / 20°C 64°F / 18°C 88% 30.01 in
(1016 mb)
ENE 3.5 mph
(ENE 6 kph)
- 10SM
19:55
Overcast
68°F / 20°C 63°F / 17°C 83% 30.01 in
(1016 mb)
NNE 4.6 mph
(NNE 7 kph)
- 10SM
19:35
Overcast
68°F / 20°C 63°F / 17°C 83% 30.01 in
(1016 mb)
N 3.5 mph
(N 6 kph)
- 10SM
19:15
Overcast
68°F / 20°C 63°F / 17°C 83% 30.01 in
(1016 mb)
NE 3.5 mph
(NE 6 kph)
- 10SM
18:55
Overcast
70°F / 21°C 64°F / 18°C 83% 30.01 in
(1016 mb)
Calm - 10SM
18:35
Overcast
68°F / 20°C 64°F / 18°C 88% 29.98 in
(1015 mb)
Calm - 10SM
18:15
Overcast
70°F / 21°C 64°F / 18°C 83% 29.98 in
(1015 mb)
NNE 5.8 mph
(NNE 9 kph)
- 10SM
17:55
Overcast
68°F / 20°C 63°F / 17°C 83% 29.98 in
(1015 mb)
NE 3.5 mph
(NE 6 kph)
- 10SM
17:35
Overcast
68°F / 20°C 63°F / 17°C 83% 29.98 in
(1015 mb)
NE 3.5 mph
(NE 6 kph)
- 10SM
17:15
Overcast
70°F / 21°C 63°F / 17°C 78% 29.98 in
(1015 mb)
NNE 6.9 mph
(NNE 11 kph)
- 10SM
16:55
Overcast
70°F / 21°C 63°F / 17°C 78% 29.98 in
(1015 mb)
N 5.8 mph
(N 9 kph)
- 10SM
16:35
Overcast
70°F / 21°C 63°F / 17°C 78% 29.98 in
(1015 mb)
NE 4.6 mph
(NE 7 kph)
- 10SM
16:15
Overcast
68°F / 20°C 63°F / 17°C 83% 30.01 in
(1016 mb)
ENE 3.5 mph
(ENE 6 kph)
- 10SM
15:55
Overcast
68°F / 20°C 63°F / 17°C 83% 30.01 in
(1016 mb)
Calm - 10SM
15:35
Overcast
68°F / 20°C 63°F / 17°C 83% 29.98 in
(1015 mb)
N 6.9 mph
(N 11 kph)
- 10SM
15:15
Overcast
68°F / 20°C 63°F / 17°C 83% 30.01 in
(1016 mb)
N 6.9 mph
(N 11 kph)
- 10SM
14:55
Overcast
68°F / 20°C 63°F / 17°C 83% 30.01 in
(1016 mb)
NE 5.8 mph
(NE 9 kph)
- 10SM
14:35
Overcast
68°F / 20°C 63°F / 17°C 83% 30.01 in
(1016 mb)
NE 4.6 mph
(NE 7 kph)
- 10SM
14:15
Overcast
70°F / 21°C 63°F / 17°C 78% 30.01 in
(1016 mb)
Calm - 10SM
13:55
Overcast
66°F / 19°C 63°F / 17°C 88% 30.01 in
(1016 mb)
Calm - 10SM
13:35
Overcast
66°F / 19°C 63°F / 17°C 88% 30.01 in
(1016 mb)
Calm - 10SM
13:15
Overcast
66°F / 19°C 63°F / 17°C 88% 30.01 in
(1016 mb)
Calm - 10SM
12:55
Overcast
66°F / 19°C 63°F / 17°C 88% 30.01 in
(1016 mb)
SSE 4.6 mph
(SSE 7 kph)
- 10SM
12:35
Overcast
66°F / 19°C 61°F / 16°C 83% 30.01 in
(1016 mb)
SSE 3.5 mph
(SSE 6 kph)
- 10SM
12:15
Overcast
66°F / 19°C 61°F / 16°C 83% 30.01 in
(1016 mb)
SW 4.6 mph
(SW 7 kph)
- 7SM
11:55
Overcast
66°F / 19°C 61°F / 16°C 83% 30.01 in
(1016 mb)
S 3.5 mph
(S 6 kph)
- 10SM
11:35
Overcast
66°F / 19°C 61°F / 16°C 83% 30.01 in
(1016 mb)
SW 3.5 mph
(SW 6 kph)
- 10SM
11:15
Overcast
66°F / 19°C 61°F / 16°C 83% 30.01 in
(1016 mb)
S 3.5 mph
(S 6 kph)
- 10SM
10:55
Overcast
66°F / 19°C 61°F / 16°C 83% 30.01 in
(1016 mb)
Calm - 10SM
10:35
Overcast
64°F / 18°C 61°F / 16°C 88% 30.01 in
(1016 mb)
Calm - 10SM
10:15
Overcast
64°F / 18°C 61°F / 16°C 88% 30.01 in
(1016 mb)
SSE 4.6 mph
(SSE 7 kph)
- 10SM
09:55
Overcast
64°F / 18°C 61°F / 16°C 88% 30.01 in
(1016 mb)
SE 3.5 mph
(SE 6 kph)
- 10SM
09:35
Overcast
64°F / 18°C 61°F / 16°C 88% 30.01 in
(1016 mb)
Calm - 10SM
09:15
Overcast
64°F / 18°C 59°F / 15°C 83% 30.01 in
(1016 mb)
S 4.6 mph
(S 7 kph)
- 10SM
08:55
Overcast
64°F / 18°C 59°F / 15°C 83% 30.01 in
(1016 mb)
Calm - 10SM
08:35
Overcast
64°F / 18°C 59°F / 15°C 83% 30.04 in
(1017 mb)
Calm - 10SM
08:15
Overcast
63°F / 17°C 59°F / 15°C 88% 30.04 in
(1017 mb)
Calm - 10SM
07:55
Overcast
63°F / 17°C 57°F / 14°C 83% 30.04 in
(1017 mb)
Calm - 10SM
07:35
Overcast
63°F / 17°C 57°F / 14°C 83% 30.04 in
(1017 mb)
NW 4.6 mph
(NW 7 kph)
- 10SM
07:15
Overcast
63°F / 17°C 57°F / 14°C 83% 30.04 in
(1017 mb)
Calm - 10SM
06:55
Overcast
63°F / 17°C 57°F / 14°C 83% 30.04 in
(1017 mb)
SSE 3.5 mph
(SSE 6 kph)
- 10SM
06:35
Overcast
61°F / 16°C 57°F / 14°C 88% 30.04 in
(1017 mb)
Calm - 10SM
06:15
Overcast
61°F / 16°C 57°F / 14°C 88% 30.04 in
(1017 mb)
Calm - 10SM
05:55
Overcast
61°F / 16°C 57°F / 14°C 88% 30.04 in
(1017 mb)
Calm - 10SM
05:35
Overcast
61°F / 16°C 57°F / 14°C 88% 30.04 in
(1017 mb)
Calm - 9SM
05:15
Overcast
61°F / 16°C 55°F / 13°C 83% 30.04 in
(1017 mb)
Calm - 10SM
04:55
Overcast
61°F / 16°C 55°F / 13°C 83% 30.04 in
(1017 mb)
Calm - 10SM
04:35
Overcast
61°F / 16°C 55°F / 13°C 83% 30.01 in
(1016 mb)
Calm - 10SM
04:15
Overcast
61°F / 16°C 55°F / 13°C 83% 30.01 in
(1016 mb)
Calm - 10SM
03:55
Overcast
61°F / 16°C 55°F / 13°C 83% 30.01 in
(1016 mb)
SE 5.8 mph
(SE 9 kph)
- 10SM
03:35
Overcast
61°F / 16°C 55°F / 13°C 83% 30.01 in
(1016 mb)
Calm - 10SM
03:15
Overcast
61°F / 16°C 55°F / 13°C 83% 30.01 in
(1016 mb)
W 3.5 mph
(W 6 kph)
- 10SM
02:55
Overcast
61°F / 16°C 55°F / 13°C 83% 30.04 in
(1017 mb)
SSE 5.8 mph
(SSE 9 kph)
- 10SM
02:35
Overcast
61°F / 16°C 54°F / 12°C 77% 30.04 in
(1017 mb)
S 3.5 mph
(S 6 kph)
- 10SM
02:15
Overcast
61°F / 16°C 54°F / 12°C 77% 30.04 in
(1017 mb)
S 5.8 mph
(S 9 kph)
- 10SM
01:55
Overcast
61°F / 16°C 54°F / 12°C 77% 30.04 in
(1017 mb)
SSE 3.5 mph
(SSE 6 kph)
- 10SM
01:35
Overcast
61°F / 16°C 54°F / 12°C 77% 30.04 in
(1017 mb)
S 5.8 mph
(S 9 kph)
- 10SM
01:15
Overcast
63°F / 17°C 54°F / 12°C 73% 30.04 in
(1017 mb)
SW 6.9 mph
(SW 11 kph)
- 10SM
00:55
Overcast
63°F / 17°C 54°F / 12°C 73% 30.04 in
(1017 mb)
SW 8.1 mph
(SW 13 kph)
- 10SM
00:35
Overcast
63°F / 17°C 54°F / 12°C 73% 30.04 in
(1017 mb)
SSW 6.9 mph
(SSW 11 kph)
- 10SM
00:15
Overcast
63°F / 17°C 54°F / 12°C 73% 30.04 in
(1017 mb)
S 4.6 mph
(S 7 kph)
- 10SM
Time Weather Temperature Dewpoint Humidity Pressure Winds Precip Visibility


Weather for websites

WeatherForYou.com, LLC is not responsible for any damages or problems caused by this service. Current weather conditions are obtained from the closest station including government and personal stations which may have varying degrees of accuracy. Weather forecasts are derived from the NOAA NDFD. Like all things, this site belongs to Jesus Christ... He just trusts us to maintain it. If you have any questions or comments email webmaster@weatherforyou.com

Copyright © 2015, WeatherForYou.com LLC. All rights reserved.